{"data":{"norad_id":51747,"epoch":"2026-05-24T22:27:40.728384Z","epoch_age_seconds":89362,"freshness":"FRESH","line1":"1 51747U 22016AK  26144.93588806  .00000298  00000+0  36831-4 0  9992","line2":"2 51747  53.2144 336.8863 0001227  73.4589 286.6538 15.08839988235074","mean_motion":15.08839988,"eccentricity":0.0001227,"inclination_deg":53.2144,"raan_deg":336.8863,"arg_perigee_deg":73.4589,"mean_anomaly_deg":286.6538,"bstar":3.6831e-5,"rev_number":23507,"period_min":95.437555436793,"perigee_km":538.89460171508,"apogee_km":540.59224957153,"semimajor_km":6917.8804256433,"source":"CELESTRAK","updated_at":"2026-05-25T13:38:16.946409Z"}}